Location: Carrières
(48.9495°N, 2.0407°E)
Time: 03:57:25
(UTC+00:00)

Transit 2A Rocket - All Passes

Search period start: 22 April 2024 00:00
Search period end: 02 May 2024 00:00
Orbit: 587 x 907 km, 66.7° (Epoch: 21 April)

Date Brightness Start Highest point End Pass type
(mag) Time Alt. Az. Time Alt. Az. Time Alt. Az.
22 Apr - 10:10:02 10° SSE 10:13:31 22° ESE 10:17:13 10° ENE daylight
22 Apr - 11:51:00 10° SW 11:55:31 58° NW 12:00:30 10° NNE daylight
22 Apr - 13:35:58 10° WNW 13:39:09 17° NNW 13:42:32 10° NNE daylight
22 Apr - 15:22:24 10° NNW 15:23:54 11° N 15:25:27 10° NNE daylight
22 Apr - 17:04:55 10° NNW 17:08:38 18° NNE 17:12:32 10° ENE daylight
22 Apr - 18:46:50 10° NNW 18:52:17 56° NE 18:58:05 10° SE daylight
22 Apr - 20:29:39 10° NW 20:34:38 33° WSW 20:39:52 10° S visible
23 Apr - 09:28:07 10° SE 09:29:59 12° ESE 09:31:55 10° E daylight
23 Apr - 11:06:57 10° SSW 11:11:30 86° SE 11:16:31 10° NE daylight
23 Apr - 12:50:57 10° W 12:54:42 22° NNW 12:58:44 10° NNE daylight
23 Apr - 14:37:31 10° NNW 14:39:14 11° N 14:40:59 10° NNE daylight
23 Apr - 16:21:06 10° NNW 16:24:06 15° NNE 16:27:12 10° NE daylight
23 Apr - 18:03:00 10° NNW 18:08:07 38° NE 18:13:34 10° ESE daylight
23 Apr - 19:45:23 10° NW 19:50:50 52° WSW 19:56:36 10° SSE visible
24 Apr - 10:23:15 10° SSW 10:27:38 50° ESE 10:32:25 10° NE daylight
24 Apr - 12:06:11 10° WSW 12:10:22 31° NW 12:14:55 10° NNE daylight
24 Apr - 13:52:18 10° NW 13:54:35 13° NNW 13:56:57 10° NNE daylight
24 Apr - 15:37:13 10° NNW 15:39:29 13° NNE 15:41:50 10° NE daylight
24 Apr - 17:19:10 10° NNW 17:23:50 28° NE 17:28:47 10° E daylight
24 Apr - 19:01:19 10° NW 19:06:56 81° SW 19:12:54 10° SSE daylight
24 Apr - 20:45:20 10° WNW 20:48:44 16° WSW 20:52:14 10° SW visible
25 Apr - 09:40:01 10° S 09:43:54 29° ESE 09:48:06 10° NE daylight
25 Apr - 11:21:40 10° WSW 11:26:09 47° NW 11:31:03 10° NNE daylight
25 Apr - 13:07:02 10° WNW 13:09:59 15° NNW 13:13:05 10° NNE daylight
25 Apr - 14:53:05 10° NNW 14:54:49 11° N 14:56:35 10° NNE daylight
25 Apr - 16:35:22 10° NNW 16:39:27 21° NNE 16:43:44 10° ENE daylight
25 Apr - 18:17:21 10° NNW 18:22:55 68° NE 18:28:51 10° SE daylight
25 Apr - 20:00:26 10° NW 20:05:06 26° WSW 20:09:57 10° SSW visible
26 Apr - 08:57:25 10° SE 09:00:18 17° ESE 09:03:20 10° ENE daylight
26 Apr - 10:37:27 10° SW 10:42:02 75° NW 10:47:07 10° NNE daylight
26 Apr - 12:21:55 10° WNW 12:25:28 20° NNW 12:29:15 10° NNE daylight
26 Apr - 14:08:28 10° NNW 14:10:07 11° N 14:11:49 10° NNE daylight
26 Apr - 15:51:32 10° NNW 15:54:57 16° NNE 15:58:29 10° ENE daylight
26 Apr - 17:33:27 10° NNW 17:38:47 46° NE 17:44:27 10° ESE daylight
26 Apr - 19:16:02 10° NW 19:21:20 42° WSW 19:26:54 10° S daylight
27 Apr - 09:53:34 10° SSW 09:58:05 66° ESE 10:03:04 10° NE daylight
27 Apr - 11:37:01 10° W 11:41:03 27° NW 11:45:26 10° NNE daylight
27 Apr - 13:23:22 10° NW 13:25:26 12° N 13:27:34 10° NNE daylight
27 Apr - 15:07:40 10° NNW 15:10:21 14° NNE 15:13:07 10° NE daylight
27 Apr - 16:49:36 10° NNW 16:54:33 32° NE 16:59:47 10° ESE daylight
27 Apr - 18:31:52 10° NW 18:37:28 66° WSW 18:43:23 10° SSE daylight
27 Apr - 20:16:45 10° W 20:19:05 13° WSW 20:21:28 10° SW visible
28 Apr - 09:10:05 10° S 09:14:16 38° ESE 09:18:51 10° NE daylight
28 Apr - 10:52:22 10° WSW 10:56:45 38° NW 11:01:33 10° NNE daylight
28 Apr - 12:38:06 10° NW 12:40:47 14° NNW 12:43:36 10° NNE daylight
28 Apr - 14:23:38 10° NNW 14:25:41 12° N 14:27:46 10° NNE daylight
28 Apr - 16:05:47 10° NNW 16:10:11 24° NNE 16:14:50 10° E daylight
28 Apr - 17:47:50 10° NW 17:53:29 82° NE 17:59:29 10° SE daylight
28 Apr - 19:31:17 10° WNW 19:35:29 21° WSW 19:39:49 10° SSW visible
29 Apr - 08:27:06 10° SSE 08:30:36 22° ESE 08:34:19 10° ENE daylight
29 Apr - 10:07:59 10° SW 10:12:34 60° NW 10:17:38 10° NNE daylight
29 Apr - 11:52:54 10° WNW 11:56:13 18° NNW 11:59:44 10° NNE daylight
29 Apr - 13:39:15 10° NNW 13:40:58 11° N 13:42:43 10° NNE daylight
29 Apr - 15:21:56 10° NNW 15:25:43 19° NNE 15:29:40 10° ENE daylight
29 Apr - 17:03:54 10° NNW 17:09:24 55° NE 17:15:14 10° SE daylight
29 Apr - 18:46:41 10° NW 18:51:46 34° WSW 18:57:04 10° S daylight
30 Apr - 07:45:11 10° SE 07:47:03 12° ESE 07:48:58 10° E daylight
30 Apr - 09:23:56 10° SSW 09:28:32 84° SE 09:33:38 10° NE daylight
30 Apr - 11:07:52 10° W 11:11:44 23° NNW 11:15:53 10° NNE daylight
30 Apr - 12:54:20 10° NNW 12:56:15 12° N 12:58:14 10° NNE daylight
30 Apr - 14:38:04 10° NNW 14:41:09 15° NNE 14:44:19 10° NE daylight
30 Apr - 16:20:01 10° NNW 16:25:11 38° NE 16:30:41 10° ESE daylight
30 Apr - 18:02:24 10° NW 18:07:56 53° WSW 18:13:44 10° SSE daylight
01 May - 08:40:13 10° SSW 08:44:38 49° ESE 08:49:30 10° NE daylight
01 May - 10:23:04 10° WSW 10:27:21 32° NW 10:32:01 10° NNE daylight
01 May - 12:09:07 10° NW 12:11:34 13° NNW 12:14:07 10° NNE daylight
01 May - 13:54:06 10° NNW 13:56:29 13° NNE 13:58:57 10° NE daylight
01 May - 15:36:09 10° NNW 15:40:52 28° NE 15:45:51 10° E daylight
01 May - 17:18:19 10° NW 17:23:59 83° WSW 17:30:00 10° SSE daylight
01 May - 19:02:15 10° WNW 19:05:48 17° WSW 19:09:26 10° SW daylight
